Tracking 18796 objects as of 20-September-2017
HD Live streaming from Space Station
objects crossing your sky now

FLOCK 2K 31

Track FLOCK 2K 31 now!
10-day predictions
FLOCK 2K 31 is classified as:


NORAD ID: 42869
Int'l Code: 2017-042AW
Perigee: 463.5 km
Apogee: 481.0 km
Inclination: 97.0 °
Period: 93.9 minutes
Semi major axis: 6843 km
RCS: Unknown
Launch date: July 14, 2017
Source: United States (US)
Launch site: TYURATAM MISSILE AND SPACE COMPLEX (TTMTR)
aabbcc
Your satellite tracking list
Your tracking list is empty





NASA's NSSDC Master Catalog

Two Line Element Set (TLE):
1 42869U 17042AW  17262.76787044 +.00003970 +00000-0 +12423-3 0  9998
2 42869 096.9969 168.1724 0012782 018.7203 341.4508 15.33589739010143
Source of the keplerian elements: AFSPC